AW757 Weather Reports


time (UTC)temp
F
wind
direction
speed
knots
gust
knots
rain 1hr
in
rain 24hr
in
rain mn
in
humidity
%
barometer
mb
20260503224553 65 228 4.3 14.8 0.00 0.00 0.00 52 1013.4
20260503224522 65 205 4.3 14.8 0.00 0.00 0.00 52 1013.6
20260503223051 65 198 4.3 12.2 0.00 0.00 0.00 51 1013.5
20260503223021 65 231 3.5 12.2 0.00 0.00 0.00 51 1013.6
20260503221556 66 202 2.6 11.3 0.00 0.00 0.00 54 1013.6
20260503221523 65 167 2.6 11.3 0.00 0.00 0.00 54 1013.7
20260503220052 65 232 5.2 10.4 0.00 0.00 0.00 54 1013.8
20260503220036 65 257 4.3 10.4 0.00 0.00 0.00 53 1014.0
20260503214554 63 227 5.2 11.3 0.00 0.00 0.00 56 1013.8
20260503214512 63 229 6.1 11.3 0.00 0.00 0.00 55 1014.0
20260503213051 65 196 3.5 11.3 0.00 0.00 0.00 59 1013.9
20260503213009 65 215 4.3 11.3 0.00 0.00 0.00 59 1014.1
20260503211559 65 219 2.6 9.6 0.00 0.00 0.00 58 1013.8
20260503211507 65 212 2.6 9.6 0.00 0.00 0.00 58 1013.9
20260503210051 64 167 3.5 9.6 0.00 0.00 0.00 58 1013.9
20260503210006 64 175 4.3 9.6 0.00 0.00 0.00 57 1014.0
20260503204549 63 200 2.6 13.9 0.00 0.00 0.00 62 1014.0
20260503204506 63 266 2.6 13.9 0.00 0.00 0.00 61 1014.2
20260503203105 63 217 6.1 10.4 0.00 0.00 0.00 60 1014.3
20260503203020 63 211 6.1 10.4 0.00 0.00 0.00 60 1014.4
20260503201549 63 234 5.2 13.9 0.00 0.00 0.00 61 1014.4
20260503201512 63 232 5.2 13.9 0.00 0.00 0.00 61 1014.4
20260503200054 63 212 5.2 14.8 0.00 0.00 0.00 60 1014.3
20260503200019 63 138 4.3 14.8 0.00 0.00 0.00 59 1014.4
20260503194554 64 210 5.2 12.2 0.00 0.00 0.00 56 1014.4
20260503194512 64 207 6.1 12.2 0.00 0.00 0.00 56 1014.5
20260503193053 64 200 4.3 9.6 0.00 0.00 0.00 55 1014.4
20260503193014 64 233 4.3 9.6 0.00 0.00 0.00 55 1014.5
20260503191553 65 230 2.6 8.7 0.00 0.00 0.00 54 1014.4
20260503191518 65 209 3.5 8.7 0.00 0.00 0.00 54 1014.5
20260503190055 64 207 2.6 7.0 0.00 0.00 0.00 54 1014.5
20260503190011 64 146 2.6 7.0 0.00 0.00 0.00 53 1014.5
20260503184551 63 224 1.7 6.1 0.00 0.00 0.00 55 1014.6
20260503184507 63 240 2.6 6.1 0.00 0.00 0.00 55 1014.6
20260503183058 62 253 2.6 7.8 0.00 0.00 0.00 54 1014.6
20260503183026 62 198 2.6 7.8 0.00 0.00 0.00 55 1014.7
20260503181604 61 211 1.7 7.0 0.00 0.00 0.00 57 1014.8
20260503181518 61 145 1.7 6.1 0.00 0.00 0.00 57 1014.9
20260503180053 61 221 2.6 7.0 0.00 0.00 0.00 58 1014.8
20260503180022 61 226 2.6 7.0 0.00 0.00 0.00 59 1014.9
20260503174553 60 198 1.7 8.7 0.00 0.00 0.00 61 1015.0
20260503174519 60 189 1.7 8.7 0.00 0.00 0.00 61 1015.0
20260503173059 59 203 1.7 8.7 0.00 0.00 0.00 64 1014.8
20260503173020 59 163 1.7 8.7 0.00 0.00 0.00 64 1015.0
20260503171553 59 234 3.5 8.7 0.00 0.00 0.00 66 1014.7
20260503171513 59 221 3.5 8.7 0.00 0.00 0.00 66 1014.9
20260503081550 55 304 0.9 2.6 0.00 0.00 0.00 80 1013.1
20260503081513 55 324 0.9 2.6 0.00 0.00 0.00 80 1013.4
20260503071554 55 0 0.0 0.0 0.00 0.00 0.00 80 1013.0
20260503071527 56 344 0.0 0.0 0.00 0.00 0.00 80 1013.2
20260503060105 55 295 0.0 2.6 0.00 0.00 0.00 81 1012.7
20260503054547 55 312 0.0 1.7 0.00 0.00 0.00 81 1012.7
20260503054515 55 321 0.0 1.7 0.00 0.00 0.00 81 1012.9
20260503053050 54 270 0.9 2.6 0.00 0.00 0.00 81 1012.6
20260503053008 54 310 0.9 2.6 0.00 0.00 0.00 81 1012.8
20260503051552 54 352 0.0 2.6 0.00 0.00 0.00 82 1012.6
20260503051509 54 313 0.0 2.6 0.00 0.00 0.00 82 1012.7
20260503050049 54 327 0.0 2.6 0.00 0.00 0.00 82 1012.5
20260503050024 54 302 0.0 2.6 0.00 0.00 0.00 82 1012.6
20260503044556 54 331 0.0 1.7 0.00 0.00 0.00 81 1012.3
20260503044512 54 331 0.0 1.7 0.00 0.00 0.00 81 1012.5
20260503043054 54 0 0.0 2.6 0.00 0.00 0.00 81 1012.3
20260503043017 54 310 0.0 2.6 0.00 0.00 0.00 81 1012.5
20260503041553 55 288 0.0 2.6 0.00 0.00 0.00 80 1012.3
20260503041514 55 321 0.0 1.7 0.00 0.00 0.00 80 1012.5
20260503040100 55 0 0.0 2.6 0.00 0.00 0.00 80 1012.4
20260503040013 55 345 0.0 2.6 0.00 0.00 0.00 80 1012.4
20260503034551 55 348 0.9 2.6 0.00 0.00 0.00 79 1012.1
20260503034512 55 340 0.9 2.6 0.00 0.00 0.00 79 1012.3
20260503033107 56 314 0.9 3.5 0.00 0.00 0.00 79 1012.0
20260503033012 56 323 0.9 3.5 0.00 0.00 0.00 79 1012.1
20260503031552 56 0 0.0 0.9 0.00 0.00 0.00 79 1012.0
20260503031520 56 195 0.0 0.9 0.00 0.00 0.00 79 1012.1
20260503030051 57 0 0.0 1.7 0.00 0.00 0.00 78 1011.9
20260503030020 57 202 0.0 1.7 0.00 0.00 0.00 78 1011.8
20260503024554 57 215 0.0 3.5 0.00 0.00 0.00 77 1011.7
20260503024520 57 229 0.0 3.5 0.00 0.00 0.00 77 1011.7
20260503023102 57 241 3.5 10.4 0.00 0.00 0.00 75 1011.5
20260503023019 57 244 3.5 6.1 0.00 0.00 0.00 75 1011.5
20260503021606 58 215 1.7 7.8 0.00 0.00 0.00 73 1011.5
20260503021517 58 200 1.7 7.8 0.00 0.00 0.00 73 1011.6
20260503020049 60 252 2.6 7.0 0.00 0.00 0.00 71 1011.6
20260503020017 60 220 2.6 7.0 0.00 0.00 0.00 71 1011.6
20260503014549 61 234 4.3 8.7 0.00 0.00 0.00 68 1011.7
20260503014522 61 246 4.3 8.7 0.00 0.00 0.00 68 1011.7
20260503013053 62 247 2.6 6.1 0.00 0.00 0.00 67 1011.6
20260503013020 62 279 2.6 6.1 0.00 0.00 0.00 67 1011.6
20260503011601 63 192 3.5 8.7 0.00 0.00 0.00 65 1011.7
20260503011523 63 198 3.5 8.7 0.00 0.00 0.00 65 1011.7
20260503010058 63 240 3.5 7.0 0.00 0.00 0.00 64 1011.6
20260503010027 64 215 3.5 7.0 0.00 0.00 0.00 64 1011.7
20260503004552 64 181 1.7 8.7 0.00 0.00 0.00 63 1011.9
20260503004523 64 235 0.9 8.7 0.00 0.00 0.00 63 1011.9
20260503003101 66 148 1.7 7.0 0.00 0.00 0.00 62 1011.9
20260503003004 65 183 1.7 7.0 0.00 0.00 0.00 62 1011.9
20260503001608 65 248 3.5 7.8 0.00 0.00 0.00 63 1011.8
20260503001505 65 189 3.5 7.8 0.00 0.00 0.00 63 1011.9
20260503000112 67 160 2.6 7.8 0.00 0.00 0.00 61 1011.7
20260503000009 67 168 1.7 7.8 0.00 0.00 0.00 61 1011.9
20260502234554 67 218 3.5 7.0 0.00 0.00 0.00 59 1011.7
20260502234512 67 194 3.5 7.0 0.00 0.00 0.00 59 1011.9
20260502233056 67 215 3.5 7.8 0.00 0.00 0.00 61 1011.6
20260502233013 67 187 3.5 7.8 0.00 0.00 0.00 61 1012.0
20260502231552 66 196 3.5 8.7 0.00 0.00 0.00 62 1012.1
20260502231513 66 197 3.5 7.8 0.00 0.00 0.00 62 1012.4
20260502230048 66 204 2.6 7.8 0.00 0.00 0.00 62 1012.1
20260502230009 66 227 2.6 7.8 0.00 0.00 0.00 62 1012.5